sat.trackr.live / text

‹ back to catalog

STARLINK-31615

NORAD 59413 · 2024-064R

PAYLOAD ACTIVE UNKNOWN

§ Identity

Operator
Country
US
Launch date
2024-04-05
Launch site
AFETR
Launch vehicle
Mass (kg)
RCS (m²)

Purposes: comms

External: N2YO · Heavens-Above · Gunter

§ Orbital elements

Epoch: 2026-09-21T15:14:11.932512Z

Period
93.82 min
Inclination
42.9984°
Eccentricity
0.0009075
Mean motion
15.34835145 rev/d
Perigee alt
455.2 km
Apogee alt
467.6 km
Semi-major
6,839.5 km
B*
1.2259e-3
RAAN
19.9762°
Arg perigee
332.1716°
Mean anomaly
27.8652°
Rev number
13,930

§ Raw data

STARLINK-316151 59413U 24064R   26264.63486033  .00042310  00000+0  12259-2 0  99912 59413  42.9984  19.9762 0009075 332.1716  27.8652 15.34835145139303

JSON: /api/v1/satellites/59413 · /tle

For live sub-satellite position, see the globe view (requires WebGL).

§ Visibility from observer

Set your observer location to see the next 7 days of passes ≥ 10°. The values pass through the URL so the page stays shareable.

No JS? Fill the form by hand. The geolocation button needs JavaScript.